Location: ?p Thanh B�nh
(16.5833°N, 107.5333°E)
Time: 10:13:19
(UTC+00:00)

Cosmos 1980 Rocket - Pass Details

Date: 29 October 2020
Orbit: 831 x 848 km, 71.0° (Epoch: 23 November)

Event Time Altitude Azimuth Distance (km) Brightness Sun altitude
Rises 21:25:11 0° 0° (N) 3,368 5.2 -20.0°
Reaches altitude 10° 21:27:57 10° 12° (NNE) 2,435 4.6 -19.3°
Maximum altitude 21:32:41 28° 70° (ENE) 1,513 4.1 -18.2°
Drops below altitude 10° 21:37:25 10° 128° (SE) 2,440 5.5 -17.1°
Sets 21:40:11 0° 140° (SE) 3,376 6.2 -16.4°
